Погода в Нордене

Германия     53°35′44″N   7°12′06″E
темп.,
°C
ветер,
м/с
пор.,
м/с
влажн.,
%
обл.,
%
осадки,
мм/ч
давл.,
гПа
погр.,
м
29 июня, ср
ср2923:00+14всв45870 0.0 101959
02:00+14в46820 0.0 101992
05:00+13вюв49900 0.0 1017141
08:00+18юв47700 0.0 1016209
11:00+23юв565329 0.0 1015750
14:00+25юв564697 0.0 10141733
17:00+23юв3765100 0.0 1013183
20:00+22ююв237246 0.0 101399
30 июня, чт
чт3023:00+20вюв236993 0.0 101350
02:00+20вюв497085 0.0 1013237
05:00+15юв410808 0.1 1013161
08:00+18вюв497270 0.3 1013231
11:00+23вюв455999 0.0 1012649
14:00+26юв345722 0.2 10121386
17:00+27вюв345495 0.8 10101740
20:00+23всв59690 0.8 1009259
1 июля, пт
пт123:00+18юз579299 1.1 1010159
02:00+16з71195100 4.4 1012534
05:00+15зюз5993100 0.1 1014480
08:00+15юз5991100 0.1 1015567
11:00+16юз5780100 0.1 1016841
14:00+20з5756100 0.1 10161730
17:00+18зсз5768100 0.3 1018619
20:00+18з487081 0.4 1019722
2 июля, сб
сб223:00+14зюз3585100 0.0 1020106
02:00+12юз46895 0.0 1021104
05:00+11ююз48880 0.0 1021139
08:00+15ююз611710 0.0 1021442
11:00+19юз79525 0.0 10221078
14:00+22зюз68467 0.0 10211643
17:00+22з355021 0.0 10201328
20:00+18с4672100 0.0 1020167
3 июля, вс
вс323:00+16в4869100 0.0 1019181
02:00+15ююв337647 0.0 101848
05:00+14юз347563 0.0 101774
08:00+18з467345 0.0 1018305
11:00+20з56643 0.0 1019917
14:00+21зсз556026 0.1 10191081
17:00+19сз5664100 0.0 1020838
20:00+17зсз56705 0.0 1020808